| time (UTC) | temp F | wind direction | speed MPH | gust MPH | rain 1hr in | rain 24hr in | rain mn in | humidity % | barometer mb |
| 20260906023102 | 49 | 257 | 2.0 | 4.0 | 0.00 | 0.01 | 0.00 | 92 | 1020.4 |
| 20260906022603 | 49 | 257 | 2.0 | 4.0 | 0.00 | 0.01 | 0.00 | 92 | 1020.5 |
| 20260906022103 | 49 | 268 | 2.0 | 4.0 | 0.00 | 0.01 | 0.00 | 92 | 1020.5 |
| 20260906021834 | 49 | 268 | 1.0 | 4.0 | 0.00 | 0.01 | 0.00 | 92 | 1020.5 |
| 20260906021104 | 49 | 268 | 1.0 | 4.0 | 0.00 | 0.01 | 0.00 | 92 | 1020.5 |
| 20260906020603 | 49 | 268 | 2.0 | 4.0 | 0.00 | 0.01 | 0.00 | 92 | 1020.6 |
| 20260906020104 | 49 | 268 | 2.0 | 4.0 | 0.00 | 0.01 | 0.00 | 92 | 1020.6 |
| 20260906015603 | 49 | 268 | 2.0 | 3.0 | 0.00 | 0.01 | 0.00 | 92 | 1020.6 |
| 20260906015102 | 49 | 268 | 2.0 | 3.0 | 0.00 | 0.01 | 0.00 | 92 | 1020.7 |
| 20260906014603 | 49 | 268 | 2.0 | 3.0 | 0.00 | 0.01 | 0.00 | 91 | 1020.8 |
| 20260906014104 | 49 | 268 | 1.0 | 4.0 | 0.00 | 0.01 | 0.00 | 91 | 1020.9 |
| 20260906013602 | 49 | 268 | 2.0 | 4.0 | 0.00 | 0.01 | 0.00 | 91 | 1020.9 |
| 20260906013330 | 49 | 268 | 2.0 | 3.0 | 0.00 | 0.01 | 0.00 | 91 | 1020.9 |
| 20260906012103 | 49 | 269 | 1.0 | 2.0 | 0.00 | 0.01 | 0.00 | 91 | 1021.1 |
| 20260906011102 | 49 | 269 | 1.0 | 2.0 | 0.00 | 0.01 | 0.00 | 90 | 1021.2 |
| 20260906010602 | 49 | 269 | 0.0 | 2.0 | 0.00 | 0.01 | 0.00 | 90 | 1021.1 |
| 20260906005601 | 49 | 269 | 1.0 | 2.0 | 0.00 | 0.01 | 0.00 | 90 | 1021.4 |
| 20260906005103 | 49 | 269 | 1.0 | 2.0 | 0.00 | 0.01 | 0.00 | 90 | 1021.4 |
| 20260906004603 | 49 | 269 | 0.0 | 1.0 | 0.00 | 0.01 | 0.00 | 90 | 1021.3 |
| 20260906004102 | 49 | 269 | 0.0 | 0.0 | 0.00 | 0.01 | 0.00 | 90 | 1021.4 |
| 20260906003602 | 49 | 269 | 0.0 | 2.0 | 0.00 | 0.01 | 0.00 | 89 | 1021.5 |
| 20260906003102 | 50 | 269 | 1.0 | 2.0 | 0.00 | 0.01 | 0.00 | 89 | 1021.5 |
| 20260906002602 | 50 | 269 | 1.0 | 2.0 | 0.00 | 0.01 | 0.00 | 89 | 1021.6 |
| 20260906002101 | 50 | 269 | 0.0 | 0.0 | 0.00 | 0.01 | 0.00 | 89 | 1021.5 |
| 20260906001602 | 50 | 269 | 0.0 | 1.0 | 0.00 | 0.01 | 0.00 | 89 | 1021.7 |
| 20260906001104 | 51 | 269 | 0.0 | 2.0 | 0.00 | 0.01 | 0.00 | 89 | 1021.7 |
| 20260906000603 | 51 | 269 | 0.0 | 2.0 | 0.00 | 0.01 | 0.00 | 89 | 1021.7 |
| 20260905235602 | 51 | 269 | 1.0 | 2.0 | 0.00 | 0.01 | 0.00 | 88 | 1021.9 |
| 20260905235102 | 51 | 269 | 1.0 | 2.0 | 0.00 | 0.01 | 0.00 | 88 | 1021.9 |
| 20260905234601 | 51 | 269 | 1.0 | 2.0 | 0.00 | 0.01 | 0.00 | 88 | 1021.9 |
| 20260905234328 | 51 | 269 | 2.0 | 2.0 | 0.00 | 0.01 | 0.00 | 88 | 1021.9 |
| 20260905233602 | 51 | 269 | 1.0 | 2.0 | 0.00 | 0.01 | 0.00 | 87 | 1022.0 |
| 20260905233104 | 52 | 269 | 1.0 | 2.0 | 0.00 | 0.01 | 0.00 | 87 | 1022.0 |
| 20260905232602 | 52 | 269 | 2.0 | 3.0 | 0.00 | 0.01 | 0.00 | 86 | 1022.1 |
| 20260905232102 | 52 | 269 | 2.0 | 3.0 | 0.00 | 0.01 | 0.00 | 86 | 1022.1 |
| 20260905231602 | 52 | 269 | 2.0 | 3.0 | 0.00 | 0.01 | 0.00 | 86 | 1022.1 |
| 20260905231102 | 53 | 269 | 2.0 | 2.0 | 0.00 | 0.01 | 0.00 | 85 | 1022.1 |
| 20260905230603 | 53 | 269 | 2.0 | 2.0 | 0.00 | 0.01 | 0.00 | 85 | 1022.1 |
| 20260905230325 | 53 | 269 | 1.0 | 2.0 | 0.00 | 0.01 | 0.00 | 84 | 1022.1 |
| 20260905225602 | 54 | 269 | 1.0 | 2.0 | 0.00 | 0.01 | 0.01 | 84 | 1021.9 |
| 20260905225103 | 54 | 269 | 2.0 | 2.0 | 0.00 | 0.01 | 0.01 | 84 | 1021.9 |
| 20260905224828 | 54 | 269 | 2.0 | 2.0 | 0.00 | 0.01 | 0.01 | 83 | 1021.9 |
| 20260905224102 | 55 | 269 | 1.0 | 2.0 | 0.00 | 0.01 | 0.01 | 83 | 1021.8 |
| 20260905223602 | 55 | 269 | 0.0 | 1.0 | 0.00 | 0.01 | 0.01 | 83 | 1021.9 |
| 20260905222604 | 56 | 269 | 0.0 | 0.0 | 0.00 | 0.01 | 0.01 | 83 | 1021.9 |
| 20260905222103 | 56 | 269 | 0.0 | 2.0 | 0.00 | 0.01 | 0.01 | 83 | 1021.9 |
| 20260905221603 | 56 | 269 | 1.0 | 2.0 | 0.00 | 0.01 | 0.01 | 83 | 1022.0 |
| 20260905221102 | 56 | 269 | 1.0 | 3.0 | 0.00 | 0.01 | 0.01 | 83 | 1022.1 |
| 20260905220604 | 56 | 269 | 1.0 | 3.0 | 0.00 | 0.01 | 0.01 | 83 | 1022.0 |
| 20260905215603 | 56 | 268 | 2.0 | 3.0 | 0.00 | 0.01 | 0.01 | 82 | 1022.0 |
| 20260905215102 | 56 | 269 | 2.0 | 4.0 | 0.00 | 0.01 | 0.01 | 82 | 1022.0 |
| 20260905214602 | 56 | 268 | 3.0 | 5.0 | 0.00 | 0.01 | 0.01 | 82 | 1022.1 |
| 20260905214102 | 56 | 269 | 2.0 | 5.0 | 0.00 | 0.01 | 0.01 | 82 | 1022.1 |
| 20260905213602 | 56 | 268 | 3.0 | 5.0 | 0.00 | 0.01 | 0.01 | 82 | 1022.2 |
| 20260905213102 | 56 | 271 | 2.0 | 4.0 | 0.00 | 0.01 | 0.01 | 81 | 1022.2 |
| 20260905212603 | 56 | 271 | 3.0 | 4.0 | 0.00 | 0.01 | 0.01 | 81 | 1022.2 |
| 20260905212329 | 56 | 271 | 2.0 | 4.0 | 0.00 | 0.01 | 0.01 | 81 | 1022.1 |
| 20260905211103 | 56 | 271 | 2.0 | 4.0 | 0.00 | 0.01 | 0.01 | 80 | 1022.2 |
| 20260905210602 | 56 | 271 | 2.0 | 4.0 | 0.00 | 0.01 | 0.01 | 80 | 1022.3 |
| 20260905210104 | 56 | 271 | 3.0 | 4.0 | 0.00 | 0.01 | 0.01 | 80 | 1022.3 |
| 20260905205602 | 56 | 272 | 2.0 | 4.0 | 0.00 | 0.01 | 0.01 | 80 | 1022.3 |
| 20260905205331 | 56 | 272 | 3.0 | 5.0 | 0.00 | 0.01 | 0.01 | 80 | 1022.2 |
| 20260905204602 | 56 | 271 | 3.0 | 5.0 | 0.00 | 0.01 | 0.01 | 80 | 1022.1 |
| 20260905204102 | 56 | 285 | 3.0 | 5.0 | 0.00 | 0.01 | 0.01 | 80 | 1022.0 |
| 20260905203606 | 56 | 292 | 3.0 | 5.0 | 0.00 | 0.01 | 0.01 | 81 | 1021.9 |
| 20260905203107 | 56 | 299 | 4.0 | 5.0 | 0.00 | 0.01 | 0.01 | 81 | 1022.0 |
| 20260905202823 | 56 | 299 | 2.0 | 4.0 | 0.00 | 0.01 | 0.01 | 82 | 1021.8 |
| 20260905202101 | 56 | 300 | 3.0 | 4.0 | 0.00 | 0.01 | 0.01 | 81 | 1021.9 |
| 20260905201558 | 56 | 300 | 2.0 | 4.0 | 0.00 | 0.01 | 0.01 | 81 | 1021.9 |
| 20260905201058 | 56 | 300 | 2.0 | 4.0 | 0.00 | 0.01 | 0.01 | 81 | 1021.9 |
| 20260905200553 | 56 | 300 | 1.0 | 3.0 | 0.00 | 0.01 | 0.01 | 80 | 1022.0 |
| 20260905200058 | 56 | 300 | 2.0 | 3.0 | 0.00 | 0.01 | 0.01 | 80 | 1022.1 |
| 20260905195549 | 56 | 300 | 2.0 | 3.0 | 0.00 | 0.01 | 0.01 | 79 | 1022.0 |
| 20260905195316 | 56 | 300 | 2.0 | 3.0 | 0.00 | 0.01 | 0.01 | 79 | 1022.0 |
| 20260905194549 | 57 | 300 | 1.0 | 3.0 | 0.00 | 0.01 | 0.01 | 78 | 1022.0 |
| 20260905194048 | 57 | 300 | 1.0 | 3.0 | 0.00 | 0.01 | 0.01 | 78 | 1021.9 |
| 20260905193546 | 57 | 300 | 2.0 | 4.0 | 0.00 | 0.01 | 0.01 | 77 | 1021.9 |
| 20260905193050 | 57 | 300 | 2.0 | 4.0 | 0.00 | 0.01 | 0.01 | 77 | 1021.7 |
| 20260905192547 | 58 | 300 | 2.0 | 4.0 | 0.00 | 0.01 | 0.01 | 77 | 1021.7 |
| 20260905192047 | 58 | 300 | 2.0 | 4.0 | 0.00 | 0.01 | 0.01 | 76 | 1021.8 |
| 20260905191548 | 58 | 299 | 2.0 | 4.0 | 0.00 | 0.01 | 0.01 | 76 | 1021.8 |
| 20260905191047 | 59 | 299 | 2.0 | 4.0 | 0.00 | 0.01 | 0.01 | 75 | 1021.7 |
| 20260905190547 | 59 | 299 | 2.0 | 4.0 | 0.00 | 0.01 | 0.01 | 75 | 1021.7 |
| 20260905190048 | 59 | 299 | 2.0 | 4.0 | 0.00 | 0.01 | 0.01 | 75 | 1021.7 |
| 20260905185547 | 59 | 300 | 2.0 | 6.0 | 0.00 | 0.01 | 0.01 | 75 | 1021.7 |
| 20260905185042 | 60 | 300 | 3.0 | 7.0 | 0.00 | 0.01 | 0.01 | 74 | 1021.7 |
| 20260905184540 | 60 | 303 | 3.0 | 7.0 | 0.00 | 0.01 | 0.01 | 75 | 1021.5 |
| 20260905184040 | 60 | 289 | 3.0 | 7.0 | 0.00 | 0.01 | 0.01 | 74 | 1021.5 |
| 20260905183542 | 60 | 262 | 3.0 | 7.0 | 0.00 | 0.01 | 0.01 | 74 | 1021.5 |
| 20260905183042 | 60 | 264 | 6.0 | 7.0 | 0.00 | 0.01 | 0.01 | 74 | 1021.5 |
| 20260905182536 | 60 | 275 | 4.0 | 6.0 | 0.00 | 0.01 | 0.01 | 74 | 1021.5 |
| 20260905182257 | 60 | 278 | 2.0 | 7.0 | 0.00 | 0.01 | 0.01 | 74 | 1021.6 |
| 20260905181537 | 61 | 279 | 3.0 | 9.0 | 0.00 | 0.01 | 0.01 | 74 | 1021.6 |
| 20260905181036 | 61 | 276 | 3.0 | 9.0 | 0.00 | 0.01 | 0.01 | 74 | 1021.5 |
| 20260905180533 | 61 | 282 | 5.0 | 9.0 | 0.00 | 0.01 | 0.01 | 74 | 1021.7 |
| 20260905180035 | 61 | 285 | 5.0 | 9.0 | 0.00 | 0.01 | 0.01 | 73 | 1021.9 |
| 20260905175534 | 61 | 252 | 3.0 | 7.0 | 0.00 | 0.01 | 0.01 | 73 | 1021.9 |
| 20260905175032 | 61 | 278 | 5.0 | 9.0 | 0.00 | 0.01 | 0.01 | 72 | 1021.7 |
| 20260905174532 | 61 | 266 | 4.0 | 9.0 | 0.00 | 0.01 | 0.01 | 73 | 1021.6 |
| 20260905174034 | 61 | 281 | 6.0 | 11.0 | 0.00 | 0.01 | 0.01 | 73 | 1021.7 |
| 20260905173532 | 62 | 314 | 5.0 | 11.0 | 0.00 | 0.01 | 0.01 | 73 | 1021.8 |
| 20260905173031 | 62 | 281 | 6.0 | 10.0 | 0.00 | 0.01 | 0.01 | 74 | 1021.9 |
| 20260905172531 | 62 | 278 | 6.0 | 12.0 | 0.00 | 0.01 | 0.01 | 74 | 1021.6 |
| 20260905172032 | 62 | 261 | 6.0 | 12.0 | 0.00 | 0.01 | 0.01 | 73 | 1021.6 |
| 20260905171532 | 62 | 264 | 4.0 | 12.0 | 0.00 | 0.01 | 0.01 | 72 | 1021.5 |
| 20260905171032 | 62 | 279 | 6.0 | 13.0 | 0.00 | 0.01 | 0.01 | 72 | 1021.4 |
| 20260905170753 | 62 | 257 | 8.0 | 13.0 | 0.00 | 0.01 | 0.01 | 71 | 1021.4 |
| 20260905170032 | 62 | 285 | 6.0 | 12.0 | 0.00 | 0.01 | 0.01 | 73 | 1021.5 |
| 20260905165532 | 62 | 275 | 7.0 | 13.0 | 0.00 | 0.01 | 0.01 | 73 | 1021.6 |
| 20260905165259 | 62 | 266 | 7.0 | 13.0 | 0.00 | 0.01 | 0.01 | 72 | 1021.6 |
| 20260905164531 | 63 | 272 | 6.0 | 13.0 | 0.00 | 0.01 | 0.01 | 71 | 1021.3 |
| 20260905164032 | 63 | 261 | 10.0 | 14.0 | 0.00 | 0.01 | 0.01 | 70 | 1021.1 |
| 20260905163533 | 64 | 286 | 8.0 | 15.0 | 0.00 | 0.01 | 0.01 | 69 | 1021.2 |
| 20260905163031 | 64 | 252 | 10.0 | 15.0 | 0.00 | 0.01 | 0.01 | 70 | 1021.1 |
| 20260905162533 | 63 | 231 | 9.0 | 14.0 | 0.00 | 0.01 | 0.01 | 70 | 1021.1 |
| 20260905162030 | 63 | 237 | 8.0 | 14.0 | 0.00 | 0.01 | 0.01 | 70 | 1021.0 |
| 20260905161751 | 63 | 247 | 4.0 | 12.0 | 0.00 | 0.01 | 0.01 | 71 | 1021.0 |
| 20260905161028 | 63 | 272 | 6.0 | 15.0 | 0.00 | 0.01 | 0.01 | 70 | 1021.0 |
| 20260905160528 | 63 | 272 | 5.0 | 15.0 | 0.00 | 0.01 | 0.01 | 69 | 1021.0 |
| 20260905160027 | 63 | 262 | 7.0 | 14.0 | 0.00 | 0.01 | 0.01 | 69 | 1021.0 |
| 20260905155527 | 63 | 275 | 8.0 | 19.0 | 0.00 | 0.01 | 0.01 | 69 | 1021.0 |
| 20260905155026 | 63 | 235 | 10.0 | 19.0 | 0.00 | 0.01 | 0.01 | 68 | 1020.8 |
| 20260905154527 | 63 | 292 | 8.0 | 19.0 | 0.00 | 0.01 | 0.01 | 69 | 1020.8 |
| 20260905154028 | 64 | 271 | 11.0 | 19.0 | 0.00 | 0.01 | 0.01 | 67 | 1020.7 |
| 20260905153526 | 64 | 278 | 9.0 | 19.0 | 0.00 | 0.01 | 0.01 | 67 | 1020.7 |
| 20260905153026 | 64 | 244 | 12.0 | 19.0 | 0.00 | 0.01 | 0.01 | 66 | 1020.8 |
| 20260905152745 | 65 | 286 | 9.0 | 17.0 | 0.00 | 0.01 | 0.01 | 66 | 1020.8 |
| 20260905152023 | 65 | 245 | 8.0 | 17.0 | 0.00 | 0.01 | 0.01 | 66 | 1020.8 |
| 20260905151522 | 65 | 266 | 11.0 | 17.0 | 0.00 | 0.01 | 0.01 | 66 | 1020.8 |
| 20260905151239 | 65 | 285 | 8.0 | 16.0 | 0.00 | 0.01 | 0.01 | 68 | 1020.7 |
| 20260905150519 | 65 | 303 | 7.0 | 16.0 | 0.00 | 0.01 | 0.01 | 66 | 1020.8 |
| 20260905150020 | 66 | 247 | 9.0 | 16.0 | 0.00 | 0.01 | 0.01 | 66 | 1020.7 |
| 20260905145518 | 65 | 238 | 9.0 | 16.0 | 0.00 | 0.01 | 0.01 | 66 | 1020.8 |
| 20260905145018 | 66 | 295 | 10.0 | 19.0 | 0.00 | 0.01 | 0.01 | 66 | 1020.8 |
| 20260905144517 | 66 | 305 | 6.0 | 19.0 | 0.00 | 0.01 | 0.01 | 67 | 1020.8 |
| 20260905144017 | 65 | 272 | 9.0 | 18.0 | 0.00 | 0.01 | 0.01 | 65 | 1020.8 |
| 20260905143518 | 65 | 275 | 9.0 | 21.0 | 0.00 | 0.01 | 0.01 | 66 | 1020.7 |
| 20260905143017 | 64 | 300 | 10.0 | 21.0 | 0.00 | 0.01 | 0.01 | 66 | 1020.6 |
| 20260905142514 | 64 | 244 | 5.0 | 19.0 | 0.00 | 0.01 | 0.01 | 69 | 1020.5 |
| 20260905142014 | 64 | 274 | 9.0 | 17.0 | 0.00 | 0.01 | 0.01 | 67 | 1020.4 |
| 20260905141515 | 65 | 266 | 9.0 | 21.0 | 0.00 | 0.01 | 0.01 | 66 | 1020.4 |
| 20260905141013 | 65 | 255 | 9.0 | 21.0 | 0.00 | 0.01 | 0.01 | 68 | 1020.3 |
| 20260905140512 | 64 | 265 | 9.0 | 19.0 | 0.00 | 0.01 | 0.01 | 70 | 1020.4 |
| 20260905140016 | 64 | 235 | 12.0 | 19.0 | 0.00 | 0.01 | 0.01 | 69 | 1020.4 |
| 20260905135509 | 65 | 262 | 9.0 | 16.0 | 0.00 | 0.01 | 0.01 | 68 | 1020.3 |
| 20260905135010 | 65 | 271 | 8.0 | 17.0 | 0.00 | 0.01 | 0.01 | 68 | 1020.3 |
| 20260905134512 | 65 | 292 | 12.0 | 17.0 | 0.00 | 0.01 | 0.01 | 69 | 1020.3 |
| 20260905134008 | 64 | 276 | 10.0 | 18.0 | 0.00 | 0.01 | 0.01 | 70 | 1020.3 |
| 20260905133506 | 65 | 285 | 12.0 | 18.0 | 0.00 | 0.01 | 0.01 | 68 | 1020.3 |
| 20260905133232 | 66 | 321 | 10.0 | 20.0 | 0.00 | 0.01 | 0.01 | 65 | 1020.2 |
| 20260905132730 | 66 | 272 | 9.0 | 20.0 | 0.00 | 0.01 | 0.01 | 66 | 1020.0 |
| 20260905132006 | 67 | 292 | 9.0 | 18.0 | 0.00 | 0.01 | 0.01 | 67 | 1020.0 |
| 20260905131510 | 66 | 258 | 11.0 | 20.0 | 0.00 | 0.01 | 0.01 | 66 | 1019.9 |
| 20260905131005 | 66 | 258 | 12.0 | 22.0 | 0.00 | 0.01 | 0.01 | 68 | 1019.9 |
| 20260905130504 | 65 | 207 | 12.0 | 22.0 | 0.00 | 0.01 | 0.01 | 69 | 1019.9 |
| 20260905130016 | 64 | 238 | 11.0 | 19.0 | 0.00 | 0.01 | 0.01 | 69 | 1020.0 |
| 20260905125503 | 65 | 251 | 8.0 | 16.0 | 0.00 | 0.01 | 0.01 | 68 | 1020.0 |
| 20260905125005 | 65 | 265 | 9.0 | 18.0 | 0.00 | 0.01 | 0.01 | 66 | 1020.0 |
| 20260905124508 | 65 | 244 | 12.0 | 18.0 | 0.00 | 0.01 | 0.01 | 66 | 1019.9 |
| 20260905124007 | 64 | 272 | 8.0 | 14.0 | 0.00 | 0.01 | 0.01 | 69 | 1019.9 |
| 20260905123504 | 65 | 285 | 8.0 | 13.0 | 0.00 | 0.01 | 0.01 | 69 | 1019.9 |
| 20260905123005 | 64 | 283 | 6.0 | 18.0 | 0.00 | 0.01 | 0.01 | 69 | 1019.8 |
| 20260905122503 | 64 | 271 | 8.0 | 18.0 | 0.00 | 0.01 | 0.01 | 68 | 1019.9 |
| 20260905122003 | 64 | 254 | 10.0 | 16.0 | 0.00 | 0.01 | 0.01 | 67 | 1020.0 |
| 20260905121507 | 65 | 266 | 10.0 | 17.0 | 0.00 | 0.01 | 0.01 | 66 | 1019.9 |
| 20260905121220 | 65 | 275 | 9.0 | 17.0 | 0.00 | 0.01 | 0.01 | 69 | 1019.8 |
| 20260905120503 | 64 | 240 | 10.0 | 18.0 | 0.00 | 0.01 | 0.01 | 69 | 1019.7 |
| 20260905120228 | 65 | 307 | 10.0 | 18.0 | 0.00 | 0.01 | 0.01 | 68 | 1019.5 |
| 20260905115504 | 66 | 255 | 11.0 | 18.0 | 0.00 | 0.01 | 0.01 | 67 | 1019.5 |
| 20260905115005 | 65 | 264 | 8.0 | 20.0 | 0.00 | 0.01 | 0.01 | 69 | 1019.5 |
| 20260905114503 | 63 | 327 | 8.0 | 20.0 | 0.00 | 0.01 | 0.01 | 71 | 1019.5 |
| 20260905114002 | 63 | 235 | 11.0 | 20.0 | 0.00 | 0.01 | 0.01 | 69 | 1019.5 |
| 20260905113501 | 65 | 243 | 12.0 | 19.0 | 0.00 | 0.01 | 0.01 | 67 | 1019.6 |
| 20260905113001 | 65 | 268 | 9.0 | 18.0 | 0.00 | 0.01 | 0.01 | 71 | 1019.4 |
| 20260905112500 | 64 | 283 | 6.0 | 17.0 | 0.00 | 0.01 | 0.01 | 68 | 1019.3 |
| 20260905111959 | 64 | 306 | 12.0 | 17.0 | 0.00 | 0.01 | 0.01 | 68 | 1019.2 |
| 20260905111500 | 65 | 286 | 6.0 | 19.0 | 0.00 | 0.01 | 0.01 | 70 | 1019.2 |
| 20260905110957 | 64 | 299 | 12.0 | 19.0 | 0.00 | 0.01 | 0.01 | 69 | 1019.4 |
| 20260905110457 | 64 | 333 | 10.0 | 19.0 | 0.00 | 0.01 | 0.01 | 70 | 1019.3 |
| 20260905105958 | 63 | 298 | 9.0 | 18.0 | 0.00 | 0.01 | 0.01 | 71 | 1019.4 |
| 20260905105458 | 63 | 299 | 10.0 | 18.0 | 0.00 | 0.01 | 0.01 | 71 | 1019.4 |
| 20260905105220 | 62 | 293 | 8.0 | 18.0 | 0.00 | 0.01 | 0.01 | 73 | 1019.2 |
| 20260905104455 | 63 | 313 | 11.0 | 19.0 | 0.00 | 0.01 | 0.01 | 70 | 1019.3 |
| 20260905103715 | 63 | 259 | 11.0 | 22.0 | 0.00 | 0.01 | 0.01 | 71 | 1019.1 |
| 20260905102454 | 63 | 326 | 7.0 | 20.0 | 0.00 | 0.01 | 0.01 | 73 | 1019.1 |
| 20260905101954 | 63 | 288 | 11.0 | 20.0 | 0.00 | 0.01 | 0.01 | 72 | 1019.1 |
| 20260905101452 | 63 | 258 | 12.0 | 21.0 | 0.00 | 0.01 | 0.01 | 71 | 1019.1 |
| 20260905100951 | 63 | 303 | 12.0 | 21.0 | 0.00 | 0.01 | 0.01 | 71 | 1019.0 |
| 20260905100449 | 62 | 272 | 12.0 | 20.0 | 0.00 | 0.01 | 0.01 | 71 | 1019.1 |
| 20260905095947 | 63 | 250 | 13.0 | 23.0 | 0.00 | 0.01 | 0.01 | 71 | 1019.1 |
| 20260905095448 | 62 | 298 | 12.0 | 23.0 | 0.00 | 0.01 | 0.01 | 72 | 1018.9 |
| 20260905094949 | 62 | 245 | 12.0 | 19.0 | 0.00 | 0.01 | 0.01 | 72 | 1018.8 |
| 20260905094447 | 62 | 282 | 7.0 | 21.0 | 0.00 | 0.01 | 0.01 | 73 | 1018.8 |
| 20260905094218 | 62 | 237 | 10.0 | 21.0 | 0.00 | 0.01 | 0.01 | 73 | 1018.7 |
| 20260905093710 | 62 | 282 | 10.0 | 20.0 | 0.00 | 0.01 | 0.01 | 73 | 1018.6 |
| 20260905092947 | 62 | 234 | 9.0 | 16.0 | 0.00 | 0.01 | 0.01 | 74 | 1018.7 |
| 20260905092445 | 62 | 254 | 10.0 | 18.0 | 0.00 | 0.01 | 0.01 | 74 | 1018.6 |
| 20260905091946 | 62 | 279 | 11.0 | 18.0 | 0.00 | 0.01 | 0.01 | 74 | 1018.6 |
| 20260905091446 | 62 | 261 | 7.0 | 14.0 | 0.00 | 0.01 | 0.01 | 75 | 1018.5 |
| 20260905090947 | 61 | 290 | 9.0 | 17.0 | 0.00 | 0.01 | 0.01 | 76 | 1018.4 |
| 20260905090704 | 60 | 275 | 7.0 | 17.0 | 0.00 | 0.01 | 0.01 | 77 | 1018.4 |
| 20260905085943 | 60 | 261 | 10.0 | 17.0 | 0.00 | 0.01 | 0.01 | 78 | 1018.2 |
| 20260905085713 | 59 | 283 | 9.0 | 17.0 | 0.00 | 0.01 | 0.01 | 78 | 1018.3 |
| 20260905084940 | 60 | 265 | 12.0 | 17.0 | 0.00 | 0.01 | 0.01 | 79 | 1018.2 |
| 20260905084708 | 59 | 290 | 6.0 | 15.0 | 0.00 | 0.01 | 0.01 | 81 | 1018.2 |
| 20260905083939 | 58 | 258 | 7.0 | 13.0 | 0.00 | 0.01 | 0.01 | 82 | 1017.9 |
| 20260905083437 | 58 | 252 | 6.0 | 12.0 | 0.00 | 0.01 | 0.01 | 82 | 1017.9 |
| 20260905082937 | 58 | 275 | 6.0 | 14.0 | 0.00 | 0.01 | 0.01 | 82 | 1017.9 |
| 20260905082708 | 58 | 274 | 6.0 | 14.0 | 0.00 | 0.01 | 0.01 | 82 | 1017.8 |
| 20260905081935 | 58 | 327 | 5.0 | 12.0 | 0.00 | 0.01 | 0.01 | 82 | 1017.8 |
| 20260905081439 | 58 | 275 | 8.0 | 12.0 | 0.00 | 0.01 | 0.01 | 82 | 1017.9 |
| 20260905080935 | 58 | 261 | 8.0 | 11.0 | 0.00 | 0.01 | 0.01 | 82 | 1017.8 |
| 20260905080435 | 58 | 275 | 4.0 | 13.0 | 0.00 | 0.01 | 0.01 | 83 | 1017.7 |
| 20260905075934 | 57 | 258 | 7.0 | 13.0 | 0.00 | 0.01 | 0.01 | 83 | 1017.6 |
| 20260905075655 | 57 | 244 | 7.0 | 13.0 | 0.00 | 0.01 | 0.01 | 83 | 1017.5 |
| 20260905074934 | 57 | 259 | 7.0 | 11.0 | 0.00 | 0.01 | 0.01 | 84 | 1017.4 |
| 20260905074433 | 56 | 250 | 5.0 | 14.0 | 0.00 | 0.01 | 0.01 | 84 | 1017.3 |
| 20260905073934 | 56 | 274 | 5.0 | 17.0 | 0.00 | 0.01 | 0.01 | 84 | 1017.2 |
| 20260905073435 | 56 | 274 | 8.0 | 17.0 | 0.00 | 0.01 | 0.01 | 84 | 1017.1 |
| 20260905072933 | 56 | 255 | 9.0 | 20.0 | 0.00 | 0.01 | 0.01 | 83 | 1017.0 |
| 20260905072433 | 56 | 265 | 8.0 | 20.0 | 0.00 | 0.01 | 0.01 | 83 | 1016.8 |
| 20260905071933 | 56 | 271 | 11.0 | 17.0 | 0.01 | 0.01 | 0.01 | 83 | 1016.8 |
| 20260905071434 | 56 | 276 | 11.0 | 19.0 | 0.01 | 0.01 | 0.01 | 84 | 1016.6 |
| 20260905070933 | 56 | 309 | 12.0 | 19.0 | 0.01 | 0.01 | 0.01 | 84 | 1016.6 |
| 20260905070433 | 56 | 258 | 10.0 | 18.0 | 0.01 | 0.01 | 0.01 | 85 | 1016.5 |
| 20260905065934 | 56 | 261 | 10.0 | 17.0 | 0.01 | 0.00 | 0.01 | 85 | 1016.5 |
| 20260905065706 | 56 | 285 | 8.0 | 16.0 | 0.01 | 0.00 | 0.01 | 86 | 1016.4 |
| 20260905064936 | 55 | 257 | 9.0 | 16.0 | 0.01 | 0.00 | 0.01 | 87 | 1016.4 |
| 20260905064434 | 55 | 281 | 8.0 | 15.0 | 0.01 | 0.00 | 0.01 | 87 | 1016.4 |
| 20260905063932 | 54 | 292 | 9.0 | 15.0 | 0.01 | 0.00 | 0.01 | 88 | 1016.5 |
| 20260905063433 | 54 | 288 | 7.0 | 15.0 | 0.01 | 0.00 | 0.01 | 88 | 1016.5 |
| 20260905062932 | 54 | 289 | 4.0 | 10.0 | 0.01 | 0.00 | 0.01 | 89 | 1016.4 |
| 20260905062433 | 54 | 286 | 5.0 | 11.0 | 0.01 | 0.00 | 0.01 | 89 | 1016.4 |
| 20260905061932 | 54 | 271 | 6.0 | 11.0 | 0.00 | 0.00 | 0.00 | 89 | 1016.3 |
| 20260905061433 | 55 | 274 | 6.0 | 10.0 | 0.00 | 0.00 | 0.00 | 88 | 1016.2 |
| 20260905060931 | 55 | 290 | 5.0 | 9.0 | 0.00 | 0.00 | 0.00 | 88 | 1016.2 |
| 20260905060432 | 55 | 292 | 4.0 | 12.0 | 0.00 | 0.00 | 0.00 | 87 | 1016.3 |
| 20260905055931 | 56 | 317 | 6.0 | 14.0 | 0.00 | 0.00 | 0.00 | 86 | 1016.2 |
| 20260905054932 | 56 | 265 | 7.0 | 13.0 | 0.00 | 0.00 | 0.00 | 84 | 1016.0 |
| 20260905054431 | 55 | 235 | 8.0 | 13.0 | 0.00 | 0.00 | 0.00 | 84 | 1015.8 |
| 20260905053930 | 55 | 255 | 7.0 | 14.0 | 0.00 | 0.00 | 0.00 | 84 | 1015.7 |
| 20260905053430 | 55 | 279 | 7.0 | 14.0 | 0.00 | 0.00 | 0.00 | 84 | 1015.8 |
| 20260905052931 | 55 | 254 | 9.0 | 13.0 | 0.00 | 0.00 | 0.00 | 84 | 1015.8 |
| 20260905052432 | 55 | 268 | 9.0 | 13.0 | 0.00 | 0.00 | 0.00 | 84 | 1015.8 |
| 20260905051931 | 55 | 261 | 7.0 | 13.0 | 0.00 | 0.00 | 0.00 | 84 | 1015.5 |
| 20260905051432 | 55 | 237 | 6.0 | 12.0 | 0.00 | 0.00 | 0.00 | 84 | 1015.4 |
| 20260905050930 | 55 | 282 | 6.0 | 13.0 | 0.00 | 0.00 | 0.00 | 84 | 1015.3 |
| 20260905050442 | 55 | 269 | 7.0 | 13.0 | 0.00 | 0.00 | 0.00 | 84 | 1015.3 |
| 20260905045930 | 55 | 244 | 7.0 | 11.0 | 0.00 | 0.00 | 0.00 | 84 | 1015.2 |
| 20260905045430 | 55 | 255 | 6.0 | 11.0 | 0.00 | 0.00 | 0.00 | 84 | 1015.3 |
| 20260905044931 | 55 | 269 | 6.0 | 11.0 | 0.00 | 0.00 | 0.00 | 84 | 1015.2 |
| 20260905044429 | 55 | 262 | 6.0 | 10.0 | 0.00 | 0.00 | 0.00 | 84 | 1015.1 |
| 20260905043929 | 55 | 275 | 3.0 | 11.0 | 0.00 | 0.00 | 0.00 | 84 | 1015.1 |
| 20260905043430 | 55 | 299 | 6.0 | 11.0 | 0.00 | 0.00 | 0.00 | 84 | 1015.1 |
| 20260905042930 | 55 | 258 | 3.0 | 6.0 | 0.00 | 0.00 | 0.00 | 84 | 1015.0 |
| 20260905042429 | 55 | 289 | 5.0 | 6.0 | 0.00 | 0.00 | 0.00 | 84 | 1014.9 |
| 20260905041930 | 55 | 274 | 3.0 | 6.0 | 0.00 | 0.00 | 0.00 | 84 | 1015.0 |
| 20260905041156 | 55 | 272 | 4.0 | 14.0 | 0.00 | 0.00 | 0.00 | 83 | 1014.8 |
| 20260905040429 | 55 | 241 | 4.0 | 11.0 | 0.00 | 0.00 | 0.00 | 83 | 1014.6 |
| 20260905040204 | 55 | 240 | 4.0 | 11.0 | 0.00 | 0.00 | 0.00 | 84 | 1014.6 |
| 20260905035429 | 55 | 234 | 6.0 | 14.0 | 0.00 | 0.00 | 0.00 | 84 | 1014.5 |
| 20260905034929 | 55 | 266 | 9.0 | 14.0 | 0.00 | 0.00 | 0.00 | 84 | 1014.6 |
| 20260905034428 | 55 | 245 | 5.0 | 10.0 | 0.00 | 0.00 | 0.00 | 85 | 1014.5 |
| 20260905033929 | 55 | 281 | 4.0 | 7.0 | 0.00 | 0.00 | 0.00 | 85 | 1014.5 |
| 20260905033427 | 55 | 271 | 4.0 | 9.0 | 0.00 | 0.00 | 0.00 | 85 | 1014.4 |
| 20260905032927 | 55 | 271 | 5.0 | 12.0 | 0.00 | 0.00 | 0.00 | 85 | 1014.3 |
| 20260905032656 | 55 | 241 | 5.0 | 12.0 | 0.00 | 0.00 | 0.00 | 85 | 1014.2 |
| 20260905032203 | 55 | 283 | 3.0 | 9.0 | 0.00 | 0.00 | 0.00 | 84 | 1014.2 |
| 20260905031428 | 55 | 279 | 5.0 | 9.0 | 0.00 | 0.00 | 0.00 | 84 | 1014.2 |
| 20260905030427 | 55 | 248 | 3.0 | 13.0 | 0.00 | 0.00 | 0.00 | 84 | 1014.0 |
| 20260905025928 | 55 | 281 | 5.0 | 13.0 | 0.00 | 0.00 | 0.00 | 83 | 1013.9 |
| 20260905025427 | 55 | 271 | 4.0 | 14.0 | 0.00 | 0.00 | 0.00 | 83 | 1013.9 |
| 20260905025158 | 55 | 300 | 8.0 | 14.0 | 0.00 | 0.00 | 0.00 | 83 | 1013.7 |
| 20260905024428 | 55 | 265 | 6.0 | 13.0 | 0.00 | 0.00 | 0.00 | 83 | 1013.6 |
| 20260905024156 | 55 | 265 | 7.0 | 13.0 | 0.00 | 0.00 | 0.00 | 83 | 1013.6 |
| 20260905023427 | 55 | 288 | 5.0 | 11.0 | 0.00 | 0.00 | 0.00 | 83 | 1013.4 |